Weather History for Crestview, FL

Change the Weather History Date:

Wednesday, December 12, 2012

  Actual Average Record
Temperature  
Mean Temperature 44 °F -  
Max Temperature 53 °F 63 °F 79 °F (2007)
Min Temperature 34 °F 37 °F 28 °F (1978)
Degree Days  
Heating Degree Days 22    
Moisture  
Dew Point 38 °F    
Average Humidity 79    
Maximum Humidity 92    
Minimum Humidity 59    
Precipitation  
Precipitation 0.00 in - - ()
Sea Level Pressure  
Sea Level Pressure 30.18 in    
Wind  
Wind Speed 4 mph (North)    
Max Wind Speed 7 mph    
Max Gust Speed -    
Visibility 9 miles    
Events Rain    
Averages and records for this station are not official NWS values.
T = Trace of Precipitation, MM = Missing Value Source: NWS Daily Summary

Daily Weather History Graph

Daily Weather History Graph

Search for Another Location

Airport:

Trip Planner

Search our weather history database for the weather conditions in past years. The results will help you decide how hot, cold, wet, or windy it might be!

Date:

Astronomy

Dec. 12, 2012 Rise Set
Actual Time 6:34 AM CST 4:45 PM CST
Civil Twilight 6:08 AM CST 5:12 PM CST
Nautical Twilight 5:37 AM CST 5:42 PM CST
Astronomical Twilight 5:08 AM CST 6:11 PM CST
Moon 5:39 AM CST (12/12) 4:20 PM CST (12/12)
Length of Visible Light 11h 04m
Length of Day
10h 10m
Waning Crescent, 1% of the Moon is Illuminated
Dec 12
Waning Crescent
Dec 13
New
Dec 19
First Quarter
Dec 28
Full
Jan 4
Last Quarter

Hourly Weather History & Observations

Time (CST) Temp. Windchill Dew Point Humidity Pressure Visibility Wind Dir Wind Speed Gust Speed Precip Events Conditions
12:53 AM 43.0 °F 40.3 °F 39.9 °F 89% 30.14 in 6.0 mi North 4.6 mph - 0.00 in   Scattered Clouds
1:53 AM 42.1 °F 39.2 °F 39.0 °F 89% 30.14 in 6.0 mi North 4.6 mph - N/A   Mostly Cloudy
2:53 AM 42.1 °F 37.7 °F 39.0 °F 89% 30.10 in 8.0 mi NNE 6.9 mph - N/A   Clear
3:53 AM 42.1 °F 40.2 °F 37.9 °F 85% 30.12 in 9.0 mi North 3.5 mph - N/A   Mostly Cloudy
4:53 AM 42.1 °F 40.2 °F 37.9 °F 85% 30.14 in 8.0 mi North 3.5 mph - 0.00 in Rain Light Rain
5:53 AM 42.1 °F 39.2 °F 37.9 °F 85% 30.16 in 9.0 mi NNW 4.6 mph - 0.00 in Rain Light Rain
6:53 AM 42.1 °F - 37.9 °F 85% 30.17 in 8.0 mi Calm Calm - 0.00 in Rain Light Rain
7:53 AM 43.0 °F 41.3 °F 39.0 °F 86% 30.17 in 7.0 mi Variable 3.5 mph - 0.00 in   Mostly Cloudy
8:53 AM 44.1 °F 40.8 °F 37.9 °F 79% 30.21 in 8.0 mi NNW 5.8 mph - N/A   Mostly Cloudy
9:53 AM 45.0 °F 41.8 °F 39.0 °F 80% 30.19 in 8.0 mi NNE 5.8 mph - N/A   Overcast
10:53 AM 48.0 °F - 41.0 °F 77% 30.17 in 9.0 mi ENE 5.8 mph - N/A   Overcast
11:53 AM 48.9 °F - 39.9 °F 71% 30.17 in 10.0 mi Variable 5.8 mph - N/A   Overcast
12:53 PM 48.9 °F - 39.9 °F 71% 30.15 in 10.0 mi North 4.6 mph - N/A   Overcast
1:53 PM 50.0 °F - 39.9 °F 68% 30.15 in 10.0 mi NNE 5.8 mph - N/A   Overcast
2:53 PM 53.1 °F - 39.9 °F 61% 30.17 in 10.0 mi NNW 5.8 mph - N/A   Mostly Cloudy
3:53 PM 53.1 °F - 39.0 °F 59% 30.17 in 10.0 mi Calm Calm - N/A   Scattered Clouds
4:53 PM 50.0 °F - 39.0 °F 66% 30.19 in 10.0 mi NNW 4.6 mph - N/A   Scattered Clouds
5:53 PM 46.0 °F 44.8 °F 37.9 °F 73% 30.20 in 10.0 mi North 3.5 mph - N/A   Clear
6:53 PM 44.1 °F 42.5 °F 37.0 °F 76% 30.21 in 10.0 mi North 3.5 mph - N/A   Clear
7:53 PM 44.1 °F 42.5 °F 36.0 °F 73% 30.21 in 10.0 mi North 3.5 mph - N/A   Clear
8:53 PM 39.9 °F - 35.1 °F 83% 30.22 in 10.0 mi Calm Calm - N/A   Clear
9:53 PM 36.0 °F - 33.1 °F 89% 30.24 in 7.0 mi Calm Calm - N/A   Clear
10:53 PM 34.0 °F - 32.0 °F 92% 30.25 in 8.0 mi Calm Calm - N/A   Clear
11:53 PM 37.0 °F 32.4 °F 33.1 °F 86% 30.25 in 9.0 mi NW 5.8 mph - N/A   Clear